LogDate,NO,NO2,NOX,O3,PM10,PM2.5,SO2,TEMP,WIND,WINDS
10/1/2012 12:00:00 AM,4.84,2.01,6.75,31.83,,,0.93,18.3,63.82,0.88
10/1/2012 1:00:00 AM,4.675833333,2.09,6.615,31.76916667,,,0.9125,17.89166667,64.94802489,0.606666667
10/1/2012 2:00:00 AM,5.015,3.4975,8.355,31.79666667,,,0.813333333,17.755,88.40471238,1.053333333
10/1/2012 3:00:00 AM,5.791666667,5.56,11.19666667,28.29583333,,,0.7475,16.5975,100.5185395,1.229166667
10/1/2012 4:00:00 AM,6.34,5.774166667,11.95,28.17083333,,,0.8,17.09416667,93.53318285,2.180833333
10/1/2012 5:00:00 AM,7.108333333,10.59916667,17.56333333,23.11333333,,,0.7575,16.6975,77.98833263,1.82
10/1/2012 6:00:00 AM,15.765,15.05083333,30.695,18.96416667,,,0.874166667,17.56583333,94.92007884,2.565833333
10/1/2012 7:00:00 AM,11.96833333,8.573333333,20.40833333,25.16833333,,,0.863333333,19.42583333,89.91146333,3.203333333
10/1/2012 8:00:00 AM,8.815833333,5.158333333,13.84333333,30.27916667,,,0.7275,21.32583333,81.85692818,2.634166667
10/1/2012 9:00:00 AM,6.523333333,3.21,9.598333333,35.56166667,,,0.674166667,23.35333333,56.27521379,2.945
10/1/2012 10:00:00 AM,6.396666667,2.541666667,8.800833333,35.725,,,0.671666667,24.44166667,56.35754267,2.8975
10/1/2012 11:00:00 AM,5.340833333,2.025,7.2425,40.92583333,,,0.756666667,25.34416667,50.3539521,2.760833333
10/1/2012 12:00:00 PM,5.245,1.969166667,7.090833333,45.5825,,,1.123333333,27.13666667,57.91642535,2.761666667
10/1/2012 1:00:00 PM,8.3475,5.67,13.90166667,50.1825,,,2.5025,28.70583333,87.40371301,3.0875
10/1/2012 2:00:00 PM,8.645,7.185833333,15.715,54.70333333,,,5.115833333,29.53,76.16553331,2.595833333
10/1/2012 3:00:00 PM,5.8125,4.76,10.46,59.17083333,,,7.110833333,30.29666667,60.38660202,2.533333333
10/1/2012 4:00:00 PM,6.39,6.911666667,13.19166667,57.4825,,,5.995,30.37,66.32909707,2.165
10/1/2012 5:00:00 PM,9.9725,17.45666667,27.33333333,49.875,,,5.9875,29.26083333,74.07342884,1.756666667
10/1/2012 6:00:00 PM,12.45083333,50.86333333,63.18416667,21.45666667,,,5.678333333,26.46916667,86.7310142,1.170833333
10/1/2012 7:00:00 PM,16.49166667,49.70916667,66.04916667,18.92666667,,,4.861666667,24.5175,82.31104781,0.719166667
10/1/2012 8:00:00 PM,20.16916667,35.77333333,55.79333333,20.78416667,,,4.5,22.0625,36.98811839,1.13
10/1/2012 9:00:00 PM,4.693333333,7.083333333,11.65166667,41.00833333,,,4.244166667,21.39666667,50.83231824,1.0575
10/1/2012 10:00:00 PM,11.70666667,18.6325,30.17666667,23.44833333,,,3.205833333,19.61833333,163.9317086,0.7675
10/1/2012 11:00:00 PM,10.59083333,14.90916667,25.35,25.0275,,,2.898333333,18.08166667,127.0496381,1.085
10/2/2012 12:00:00 AM,33.6575,18.4325,44.23666667,30.18583333,,,6.05,17.8275,100.4299172,0.9025
10/2/2012 1:00:00 AM,292.115,122.5633333,312.8825,17.7175,,,22.10166667,15.95583333,262.5618539,0.4175
10/2/2012 2:00:00 AM,187.3725,84.78,216.2758333,14.735,,,11.6,14.93083333,306.2204117,0.556666667
10/2/2012 3:00:00 AM,17.75583333,14.245,31.83166667,7.114166667,,,1.7,14.06,217.2948704,0.645
10/2/2012 4:00:00 AM,10.86416667,17.04583333,27.74583333,11.285,,,1.5525,13.88166667,188.1177358,0.546363636
10/2/2012 5:00:00 AM,72.79916667,29.03,101.5775,3.128333333,,,3.208333333,13.4625,82.67027613,0.381
10/2/2012 6:00:00 AM,46.39166667,19.96916667,66.24166667,10.57416667,,,2.129166667,15.62416667,357.9184095,0.878333333
10/2/2012 7:00:00 AM,6.645833333,4.500833333,10.99166667,29.16833333,,,1.375833333,20.95916667,346.7515716,0.768333333
10/2/2012 8:00:00 AM,5.826666667,2.7625,8.441666667,34.33916667,,,1.308333333,23.41833333,50.01218037,1.334166667
10/2/2012 9:00:00 AM,11.88166667,8.211666667,19.95,35.82166667,,,1.506666667,24.89583333,37.51737466,1.425
10/2/2012 10:00:00 AM,11.00583333,7.836666667,18.75666667,42.89,,,2.875,27.0275,37.39393386,2.119166667
10/2/2012 11:00:00 AM,6.536666667,3.964166667,10.38083333,49.52416667,,,3.661666667,29.2375,61.77778422,2.339166667
10/2/2012 12:00:00 PM,7.2975,3.7775,10.96166667,53.38416667,,,5.121666667,30.40666667,73.73766231,2.184166667
10/2/2012 1:00:00 PM,8.048333333,6.846666667,14.79333333,57.3125,,,6.8,31.62666667,66.04215625,2.495833333
10/2/2012 2:00:00 PM,8.533333333,5.838333333,14.27,58.98166667,,,5.375833333,32.47333333,58.70843813,2.349166667
10/2/2012 3:00:00 PM,5.610833333,3.341666667,8.859166667,59.70833333,,,4.120833333,33.015,45.59122178,2.015
10/2/2012 4:00:00 PM,27.58416667,12.17333333,38.17166667,56.85,,,4.424166667,33.33583333,15.89964821,2.025833333
10/2/2012 5:00:00 PM,4.994166667,5.7375,10.63333333,53.8575,,,3.335833333,31.9375,41.92726396,1.440833333
10/2/2012 6:00:00 PM,7.131666667,15.58333333,22.61166667,40.5825,,,3.201666667,28.59833333,30.48843649,0.98
10/2/2012 7:00:00 PM,81.26083333,41.69916667,122.8441667,14.08416667,,,4.504166667,24.955,150.5326571,0.515
10/2/2012 8:00:00 PM,26.81666667,39.8925,66.60916667,8.595833333,,,2.974166667,22.485,266.7468951,0.493333333
10/2/2012 9:00:00 PM,55.97,34.25833333,90.05833333,3.775833333,,,2.810833333,20.62083333,89.13148927,0.593333333
10/2/2012 10:00:00 PM,20.12,23.175,43.15333333,12.45666667,,,2.12,19.50333333,82.69836692,0.773636364
10/2/2012 11:00:00 PM,5.399166667,8.7325,13.9875,16.96833333,,,1.428333333,17.98583333,44.31082277,0.477
10/3/2012 12:00:00 AM,9.960833333,9.9275,19.74833333,19.955,,,1.613333333,17.39916667,98.90853374,0.344285714
10/3/2012 1:00:00 AM,5.84,7.704166667,13.40583333,17.54916667,,,1.380833333,16.3,95.87161683,0.453636364
10/3/2012 2:00:00 AM,4.738333333,3.385,7.966666667,30.32416667,,,1.746666667,16.88166667,30.30770619,1.065833333
10/3/2012 3:00:00 AM,5.079166667,8.574166667,13.50833333,28.10833333,,,1.934166667,16.335,325.8070712,2.02
10/3/2012 4:00:00 AM,20.02583333,16.3175,36.21166667,18.8925,,,2.36,15.05416667,215.9761491,0.934166667
10/3/2012 5:00:00 AM,61.80333333,36.10416667,97.81166667,7.859166667,,,4.395,15.01666667,178.9336356,0.7
10/3/2012 6:00:00 AM,57.83416667,36.25833333,93.895,7.32,,,3.724166667,17.29833333,236.762043,0.468333333
10/3/2012 7:00:00 AM,21.79,25.92916667,47.60166667,20.84,,,2.576666667,22.195,55.10103521,0.470833333
10/3/2012 8:00:00 AM,7.331666667,6.6725,13.86833333,38.61833333,,,1.574166667,25.2275,52.21186587,1.541666667
10/3/2012 9:00:00 AM,6.358333333,3.063333333,9.276666667,40.3175,,,1.121666667,28.13,55.9666282,1.795
10/3/2012 10:00:00 AM,7.006666667,4.464166667,11.33666667,45.5,,,1.443333333,29.49833333,75.2087358,1.695
10/3/2012 11:00:00 AM,6.605,4.520833333,11.015,50.16416667,,,1.721666667,29.9825,63.28275098,1.7625
10/3/2012 12:00:00 PM,7.383333333,4.621666667,11.89916667,53.9375,,,1.868333333,32.48583333,81.97144398,2.539166667
10/3/2012 1:00:00 PM,5.325833333,1.580833333,6.815,54.11583333,,,1.363333333,33.79916667,17.16628191,2.560833333
10/3/2012 2:00:00 PM,9.584166667,52.08583333,58.23333333,30.65,,,1.521,34.34833333,38.17264272,2.203333333
10/3/2012 3:00:00 PM,6.956666667,3.526666667,10.3875,49.40083333,,,0.8925,34.60666667,70.03886764,2.014166667
10/3/2012 4:00:00 PM,16.27636364,15.75818182,31.92181818,44.59,,,0.961818182,34.56090909,98.29699186,1.608181818
10/3/2012 5:00:00 PM,16.06416667,20.44,36.41916667,41.79833333,,,1.615,33.425,59.8456638,0.819166667
10/3/2012 6:00:00 PM,6.056666667,21.25916667,27.19,40.4375,,,1.521666667,30.82916667,18.83894963,0.848333333
10/3/2012 7:00:00 PM,10.42583333,18.19333333,28.4825,32.28333333,,,1.413333333,27.4425,359.6512,1.1875
10/3/2012 8:00:00 PM,45.09083333,38.00583333,82.975,7.795,,,2.0475,23.47833333,138.283742,0.78
10/3/2012 9:00:00 PM,19.02833333,34.95333333,53.8325,6.735,,,1.3275,21.8575,66.51510724,0.679090909
10/3/2012 10:00:00 PM,22.65583333,24.95083333,47.455,8.539166667,,,1.201666667,19.26666667,72.05009618,0.403333333
10/3/2012 11:00:00 PM,35.0175,23.18333333,58.0325,4.78,,,1.4675,18.11833333,171.1706118,0.413636364
10/4/2012 12:00:00 AM,14.28416667,19.99583333,34.10416667,5.138333333,,,0.934166667,16.49833333,60.48459046,0.431111111
10/4/2012 1:00:00 AM,6.636666667,15.94416667,22.445,11.15083333,,,1.803333333,15.6375,39.37107864,0.850833333
10/4/2012 2:00:00 AM,5.321666667,19.74333333,24.92333333,13.74333333,,,3.334166667,15.21333333,272.5710904,0.694166667
10/4/2012 3:00:00 AM,5.1125,9.5875,14.55416667,16.46916667,,,1.4825,15.37916667,240.8789772,0.588571429
10/4/2012 4:00:00 AM,34.32333333,19.56833333,53.69,4.519166667,,,1.689166667,14.49083333,232.4447777,0.667272727
10/4/2012 5:00:00 AM,71.67583333,23.70166667,95.17,2.171666667,,,2.303333333,13.88416667,137.040916,0.571818182
10/4/2012 6:00:00 AM,63.42166667,23.03583333,86.27,7.0575,,,2.256666667,16.6175,192.5890668,0.748333333
10/4/2012 7:00:00 AM,55.46,20.495,75.66666667,17.33666667,,,1.804166667,22.8975,147.6747453,1.338333333
10/4/2012 8:00:00 AM,12.22666667,8.246666667,20.2925,37,,,0.715833333,27.8325,84.53029346,1.333333333
10/4/2012 9:00:00 AM,14.59666667,5.429166667,19.87916667,41.7575,,,0.7425,29.62833333,52.4006191,1.763333333
10/4/2012 10:00:00 AM,10.31833333,7.358333333,17.59333333,43.70666667,,,1.483333333,31.145,51.79679423,1.793333333
10/4/2012 11:00:00 AM,15.9575,14.85583333,30.65416667,42.72083333,,,15.07166667,33.43166667,22.72514063,1.768333333
10/4/2012 12:00:00 PM,16.26583333,11.16083333,27.2825,49.39166667,,,12.30083333,34.8275,156.7837102,1.624166667
10/4/2012 1:00:00 PM,32.14416667,14.0675,46.0675,57.46416667,,,7.704166667,35.62583333,47.60284775,1.495833333
10/4/2012 2:00:00 PM,43.70083333,37.005,79.88833333,54.92583333,,,6.601666667,36.98416667,347.4203847,1.54
10/4/2012 3:00:00 PM,23.27333333,14.18333333,37.45833333,56.79166667,,,3.660833333,37.39333333,73.56058938,0.993333333
10/4/2012 4:00:00 PM,14.29583333,17.45083333,31.6,58.14333333,,,2.799166667,37.46,321.0919716,1.684166667
10/4/2012 5:00:00 PM,7.7725,10.80416667,18.5125,57.21416667,,,2.3575,35.69,359.0129578,0.986666667
10/4/2012 6:00:00 PM,4.969166667,8.9925,13.8475,51.94083333,,,1.89,32.56583333,3.929250284,1.5575
10/4/2012 7:00:00 PM,8.111666667,13.11583333,21.11,45.10333333,,,1.726666667,29.62333333,351.2795564,1.273333333
10/4/2012 8:00:00 PM,46.80083333,44.21083333,90.85583333,10.995,,,2.596666667,25.94583333,146.8243561,0.8975
10/4/2012 9:00:00 PM,34.11083333,42.66416667,76.59916667,5.159166667,,,2.159166667,24.36666667,253.8810531,1.174166667
10/4/2012 10:00:00 PM,27.295,43.2925,70.445,6.844166667,,,2.009166667,22.99166667,129.3521081,0.79
10/4/2012 11:00:00 PM,8.880833333,20.31,28.99416667,23.225,,,1.365833333,22.65333333,110.2400161,0.926666667
10/5/2012 12:00:00 AM,5.2225,9.315833333,14.40583333,27.46,,,1.104166667,20.87083333,344.9642699,1.085833333
10/5/2012 1:00:00 AM,6.768333333,13.00416667,19.63083333,15.95083333,,,1.004166667,19.065,98.74834356,0.695833333
10/5/2012 2:00:00 AM,5.130833333,6.980833333,11.98,22.86083333,,,1.03,18.485,38.22354365,0.865
10/5/2012 3:00:00 AM,4.851666667,3.7325,8.43,28.1925,,,0.9275,18.3,292.3631335,1.193333333
10/5/2012 4:00:00 AM,5.9325,8.281666667,14.08083333,27.08333333,,,1.061666667,18.845,270.6062494,1.0975
10/5/2012 5:00:00 AM,44.31083333,24.385,68.56666667,12.21666667,,,1.798333333,16.95166667,280.6406616,0.54
10/5/2012 6:00:00 AM,118.82,31.41833333,150.0725,3.135,,,3.499166667,18.46083333,133.4247995,0.498181818
10/5/2012 7:00:00 AM,49.6625,24.105,73.6025,20.65333333,,,2.4975,23.6125,160.8608109,0.755833333
10/5/2012 8:00:00 AM,8.363333333,11.40166667,19.64333333,45.605,,,2.159166667,28.45,67.54295144,1.814166667
10/5/2012 9:00:00 AM,5.3875,2.8975,8.161666667,56.6725,,,1.54,30.6225,62.45887451,2.791666667
10/5/2012 10:00:00 AM,5.804166667,2.749166667,8.448333333,59.965,,,1.529166667,33.05916667,52.14363896,2.8325
10/5/2012 11:00:00 AM,5.449166667,2.509166667,7.85,67.55833333,,,2.255,34.36583333,41.23462986,2.876666667
10/5/2012 12:00:00 PM,5.478333333,2.976666667,8.355833333,72.605,,,3.155,35.42416667,50.9009794,2.825833333
10/5/2012 1:00:00 PM,8.439166667,8.824166667,17.17666667,67.53666667,,,2.826666667,36.15083333,80.68571369,2.709166667
10/5/2012 2:00:00 PM,8.495833333,9.989166667,18.42333333,69.66166667,,,3.220833333,36.72666667,63.75382972,2.636666667
10/5/2012 3:00:00 PM,5.168333333,3.559166667,8.648333333,74.50416667,,,2.848333333,36.61,56.36486884,2.25
10/5/2012 4:00:00 PM,4.640833333,2.2675,6.828333333,73.91,,,2.436666667,36.16833333,37.37104066,2.869166667
10/5/2012 5:00:00 PM,4.663333333,3.890833333,8.455,70.78,,,2.246666667,34.57666667,40.91770065,2.064166667
10/5/2012 6:00:00 PM,4.594166667,5.65,10.14333333,62.4725,,,1.9525,31.76833333,40.44693238,1.758333333
10/5/2012 7:00:00 PM,5.0325,14.385,19.27916667,48.63333333,,,1.869166667,29.3675,65.96797745,1.140833333
10/5/2012 8:00:00 PM,4.744166667,7.59,12.21916667,48.095,,,1.265,28.64166667,72.93583952,1.810833333
10/5/2012 9:00:00 PM,4.664166667,3.778333333,8.31,45.83583333,,,1.031666667,27.13333333,73.35568525,2.270833333
10/5/2012 10:00:00 PM,4.629166667,3.141666667,7.6425,43.01,,,0.8725,26.69666667,70.48465321,1.601666667
10/5/2012 11:00:00 PM,4.698333333,4.8,9.380833333,39.67916667,,,0.596666667,25.7075,80.71031887,1.9425
10/6/2012 12:00:00 AM,5.2675,6.498333333,11.63666667,34.74416667,,,0.73,24.15833333,94.7537206,1.8825
10/6/2012 1:00:00 AM,4.7125,3.765,8.345833333,36.41,,,0.68,23.52083333,85.37781134,1.561666667
10/6/2012 2:00:00 AM,4.6875,2.569166667,7.133333333,38.025,,,0.43,23.08166667,77.63210681,1.301666667
10/6/2012 3:00:00 AM,4.845,3.593333333,8.314166667,38.41666667,,,0.543333333,23.13833333,85.0427802,2.020833333
10/6/2012 4:00:00 AM,5.616666667,7.840833333,13.3275,34.04083333,,,0.63,22.4,85.47594349,1.965833333
10/6/2012 5:00:00 AM,15.68916667,23.59833333,39.15583333,20.96916667,,,1.003333333,21.5025,97.00902921,2.08
10/6/2012 6:00:00 AM,17.8475,19.73416667,37.46333333,24.285,,,0.948333333,22.46833333,97.19295451,3.200833333
10/6/2012 7:00:00 AM,9.2425,9.955,19.07916667,33.45916667,,,0.7225,24.30166667,82.24628452,2.991666667
10/6/2012 8:00:00 AM,5.010833333,2.971666667,7.863333333,41.77166667,,,0.5175,26.0625,56.88106606,3.209166667
10/6/2012 9:00:00 AM,4.945833333,2.466666667,7.3175,45.4525,,,0.480833333,28.08166667,53.18458967,3.455833333
10/6/2012 10:00:00 AM,4.860833333,1.808333333,6.576666667,47.73666667,,,0.459166667,30.19166667,51.71567501,3.490833333
10/6/2012 11:00:00 AM,4.665833333,1.571666667,6.149166667,50.06416667,,,0.490833333,31.57,42.47027346,3.495833333
10/6/2012 12:00:00 PM,4.796666667,1.298333333,6.009166667,50.25416667,,,0.296666667,33.19083333,47.25785378,3.525833333
10/6/2012 1:00:00 PM,4.586666667,1.025833333,5.538333333,51.83416667,,,0.1125,34.41333333,39.0458348,3.82
10/6/2012 2:00:00 PM,4.526666667,0.940833333,5.395833333,53.41083333,,,0.104166667,35.17833333,38.5502536,3.631666667
10/6/2012 3:00:00 PM,4.864285714,1.248571429,6.031428571,53.80857143,,,0.272857143,35.57714286,46.59139752,3.485714286
10/6/2012 4:00:00 PM,4.735454545,1.032727273,5.71,54.50090909,,,0.103636364,35.28545455,44.29061439,2.705454545
10/6/2012 5:00:00 PM,4.875833333,1.806666667,6.605,52.575,,,0.36,33.6675,56.69781678,2.19
10/6/2012 6:00:00 PM,4.773333333,4.471666667,9.154166667,46.87333333,,,0.185,31.15,55.25845119,1.5025
10/6/2012 7:00:00 PM,14.8025,20.56,35.26166667,27.70416667,,,0.870833333,27.63166667,43.76870967,0.88
10/6/2012 8:00:00 PM,41.89666667,32.05583333,73.85833333,12.22666667,,,1.615,24.38833333,128.9907586,0.646666667
10/6/2012 9:00:00 PM,25.97,22.70333333,48.56666667,13.67083333,,,1.1175,22.77833333,124.2344354,1.259166667
10/6/2012 10:00:00 PM,6.588333333,10.44583333,16.91416667,28.81,,,0.606666667,22.605,51.40793778,0.828333333
10/6/2012 11:00:00 PM,27.24583333,33.07166667,60.2075,7.435833333,,,1.1075,20.815,137.5674529,0.5625
10/7/2012 12:00:00 AM,14.75083333,26.74833333,41.3825,14.46166667,,,0.9575,20.1575,107.9266612,0.7925
10/7/2012 1:00:00 AM,7.709166667,12.31916667,19.88416667,20.1125,,,0.756666667,19.21,95.32822588,0.586666667
10/7/2012 2:00:00 AM,5.366666667,6.845,12.08,27.25583333,,,0.674166667,19.195,78.39290787,0.861666667
10/7/2012 3:00:00 AM,4.763333333,3.679166667,8.299166667,27.77,,,0.524166667,17.75583333,92.60446278,0.666363636
10/7/2012 4:00:00 AM,5.0825,4.2675,9.209166667,25.89583333,,,0.568333333,17.48916667,78.92484027,0.739166667
10/7/2012 5:00:00 AM,62.74166667,30.5725,93.18166667,2.5725,,,1.956666667,16.15083333,215.0291135,0.6225
10/7/2012 6:00:00 AM,37.91583333,23.28666667,61.06666667,13.92666667,,,1.495833333,19.32916667,161.7814147,0.730833333
10/7/2012 7:00:00 AM,7.9325,5.391666667,13.18333333,33.8575,,,0.639166667,23.355,85.7367282,1.553333333
10/7/2012 8:00:00 AM,5.1675,1.986666667,7.035,42.60583333,,,0.565833333,25.91916667,64.6615363,2.785
10/7/2012 9:00:00 AM,5.625,1.779166667,7.28,46.1675,,,0.439166667,28.05583333,58.62251681,2.84
10/7/2012 10:00:00 AM,5.196666667,1.873333333,6.965,49.69333333,,,0.421666667,28.88416667,58.31590299,2.984166667
10/7/2012 11:00:00 AM,5.139166667,1.6425,6.684166667,53.02166667,,,0.301666667,30.92916667,52.50029413,2.6425
10/7/2012 12:00:00 PM,5.010833333,1.9725,6.9025,55.57666667,,,0.469166667,31.895,46.00934494,2.514166667
10/7/2012 1:00:00 PM,5.521666667,2.626666667,8.078333333,57.62083333,,,0.2525,32.615,50.27827213,2.2575
10/7/2012 2:00:00 PM,5.398333333,1.725833333,7.05,60.98916667,,,0.225833333,34.265,27.79959599,2.03
10/7/2012 3:00:00 PM,5.259166667,1.849166667,7.041666667,62.72833333,,,0.1975,35.03166667,34.63722876,1.76
10/7/2012 4:00:00 PM,5.218333333,3.211666667,8.353333333,60.76333333,,,0.283333333,34.2375,68.31389088,2.088333333
10/7/2012 5:00:00 PM,4.835833333,4.1175,8.884166667,60.40833333,,,0.370833333,33.03416667,71.62221712,1.635
10/7/2012 6:00:00 PM,5.035,16.36916667,21.3125,45.64333333,,,0.735833333,30.84166667,64.01462714,1.0775
10/7/2012 7:00:00 PM,21.76583333,30.61833333,52.26916667,26.7325,,,1.2375,28.16166667,62.91557324,0.929166667
10/7/2012 8:00:00 PM,51.77833333,51.78333333,103.4433333,6.658333333,,,1.991666667,25.5775,108.4176396,0.814166667
10/7/2012 9:00:00 PM,21.91916667,35.00333333,56.76833333,20.025,,,1.148333333,24.24666667,81.91739679,0.98
10/7/2012 10:00:00 PM,4.895,7.140833333,11.92416667,37.80916667,,,0.678333333,22.82916667,62.12368456,1.0375
10/7/2012 11:00:00 PM,12.89833333,25.98333333,38.75666667,20.74083333,,,0.845,21.73916667,120.6160725,0.9125
10/8/2012 12:00:00 AM,5.41,6.461666667,11.74083333,43.13166667,,,0.6825,22.3775,88.39840744,1.173333333
10/8/2012 1:00:00 AM,4.840833333,2.2075,6.9225,52.05916667,,,0.601666667,23.45833333,78.30106243,1.41
10/8/2012 2:00:00 AM,4.565833333,1.556666667,5.994166667,51.09583333,,,0.605,22.97833333,80.62815838,1.409166667
10/8/2012 3:00:00 AM,5.121666667,3.2525,8.250833333,49.74416667,,,0.669166667,23.59083333,89.81052382,2.631666667
10/8/2012 4:00:00 AM,5.105,3.7975,8.773333333,47.28583333,,,0.63,23.43,86.63011145,2.835833333
10/8/2012 5:00:00 AM,6.3925,14.13916667,20.40083333,38.26916667,,,0.665,22.96333333,83.72161067,2.899166667
10/8/2012 6:00:00 AM,10.32333333,19.92583333,30.10166667,32.9275,,,0.775,23.44583333,86.44292493,2.591666667
10/8/2012 7:00:00 AM,11.48583333,12.775,24.15583333,38.88,,,0.7275,25.4625,89.01689119,4.2375
10/8/2012 8:00:00 AM,10.04083333,7.9225,17.83916667,43.32916667,,,0.815833333,26.8225,94.90579209,5.889166667
10/8/2012 9:00:00 AM,7.494166667,7.07,14.44916667,46.74,,,0.683333333,28.36333333,84.46914291,4.595
10/8/2012 10:00:00 AM,6.4325,5.205,11.51916667,48.18333333,,,0.555,29.2575,79.37839938,4.535
10/8/2012 11:00:00 AM,5.6275,3.503333333,9.018333333,51.21166667,,,0.398333333,30.18916667,68.24954359,4.478333333
10/8/2012 12:00:00 PM,5.404166667,3.3075,8.608333333,50.70416667,,,0.345833333,30.63833333,71.27378326,4.250833333
10/8/2012 1:00:00 PM,5.273333333,3.2475,8.436666667,50.15166667,,,0.368333333,31.52083333,67.0587006,3.76
10/8/2012 2:00:00 PM,5.289166667,3.383333333,8.584166667,51.08,,,0.4675,32.055,60.10217846,3.743333333
10/8/2012 3:00:00 PM,5.621666667,4.095833333,9.63,50.80666667,,,0.455,32.08,70.92424632,3.725
10/8/2012 4:00:00 PM,6.250833333,7.010833333,13.17916667,47.145,,,0.3925,31.4775,72.63654065,3.533333333
10/8/2012 5:00:00 PM,8.090833333,12.7,20.6875,39.59833333,,,0.653333333,29.73083333,81.6705048,3.91
10/8/2012 6:00:00 PM,6.0675,7.274166667,13.23833333,38.81416667,,,0.670833333,27.50666667,81.30665503,4.560833333
10/8/2012 7:00:00 PM,5.951666667,5.365833333,11.2025,36.15166667,,,0.664166667,25.19666667,83.59025132,5.141666667
10/8/2012 8:00:00 PM,5.568333333,4.49,9.930833333,33.71333333,,,0.5325,23.59333333,84.04118535,4.288333333
10/8/2012 9:00:00 PM,4.815,2.630833333,7.328333333,33.47666667,,,0.495,22.28333333,80.84355932,4.055
10/8/2012 10:00:00 PM,4.7925,2.5,7.179166667,33.08666667,,,0.403333333,21.27666667,81.3113037,3.519166667
10/8/2012 11:00:00 PM,5.435,4.024166667,9.331666667,32.12583333,,,0.5325,20.61416667,83.99247654,2.8375
10/9/2012 12:00:00 AM,4.453333333,2.526666667,6.855833333,33.66083333,,,0.549166667,20.23916667,81.79258965,2.970833333
10/9/2012 1:00:00 AM,4.445833333,2.443333333,6.781666667,33.62083333,,,0.438333333,20.0225,82.31534143,2.484166667
10/9/2012 2:00:00 AM,4.6475,2.823333333,7.36,32.04916667,,,0.4275,19.82,77.6810022,2.056666667
10/9/2012 3:00:00 AM,4.383333333,3.044166667,7.305,30.71083333,,,0.4325,19.68916667,73.71921975,2.091666667
10/9/2012 4:00:00 AM,4.5225,3.844166667,8.24,28.4325,,,0.449166667,19.48916667,73.17006775,2.27
10/9/2012 5:00:00 AM,4.951666667,6.675,11.5175,24.83583333,,,0.4325,19.41083333,73.3262403,1.846666667
10/9/2012 6:00:00 AM,4.93,6.768333333,11.595,24.54833333,,,0.523333333,20.07916667,69.81563451,1.900833333
10/9/2012 7:00:00 AM,13.19916667,15.94083333,29.0325,18.9725,,,0.608333333,20.79166667,84.48407886,2.3425
10/9/2012 8:00:00 AM,11.30583333,12.0075,23.2,21.58416667,,,0.576666667,21.35416667,83.88010766,2.423333333
10/9/2012 9:00:00 AM,7.640833333,7.7625,15.27833333,25.09583333,,,0.4925,21.85,77.97528342,2.636666667
10/9/2012 10:00:00 AM,7.106666667,5.854166667,12.84666667,29.18916667,,,0.506666667,23.56,80.87050633,3.344166667
10/9/2012 11:00:00 AM,7.9475,6.266666667,14.09583333,32.65583333,,,0.464166667,24.9375,74.42341918,2.735833333
10/9/2012 12:00:00 PM,7.170833333,4.629166667,11.68416667,36.93416667,,,0.458333333,26.58333333,73.389363,2.445
10/9/2012 1:00:00 PM,7.3475,4.816666667,12.07416667,39.85666667,,,0.5575,28.27583333,74.92427309,2.37
10/9/2012 2:00:00 PM,8.255,6.361666667,14.53333333,40.52583333,,,0.4425,29.08916667,82.68569476,2.218333333
10/9/2012 3:00:00 PM,7.276666667,6.668333333,13.85,40.62916667,,,0.4325,29.895,80.07977257,2.495833333
10/9/2012 4:00:00 PM,6.305,8.32,14.51833333,40.87583333,,,0.685833333,30.03333333,70.2431291,2.0325
10/9/2012 5:00:00 PM,5.98,10.3975,16.28833333,36.88083333,,,0.695833333,29.42833333,72.93858317,2.034166667
10/9/2012 6:00:00 PM,13.7225,23.41666667,37.04166667,27.03333333,,,0.880833333,28.77416667,90.10874945,2.723333333
10/9/2012 7:00:00 PM,8.245833333,17.32583333,25.48333333,27.21416667,,,0.6375,27.60583333,81.51117427,1.681666667
10/9/2012 8:00:00 PM,4.360833333,3.185,7.44,34.72416667,,,0.475833333,26.76,73.05817667,2.505
10/9/2012 9:00:00 PM,4.605,2.0225,6.525,33.5475,,,0.44,25.99166667,73.50486351,2.565833333
10/9/2012 10:00:00 PM,4.4225,1.830833333,6.143333333,32.565,,,0.445833333,25.24166667,75.9307822,2.315833333
10/9/2012 11:00:00 PM,4.386666667,2.6725,6.95,31.2925,,,0.424166667,24.69833333,84.66227108,1.961666667
10/10/2012 12:00:00 AM,5.269166667,2.755,7.895,29.6425,,,0.366666667,23.8325,85.97083509,1.913333333
10/10/2012 1:00:00 AM,5.16,3.04,8.086666667,27.83333333,,,0.534166667,23.55,170.3011143,1.824166667
10/10/2012 2:00:00 AM,15.4325,8.655833333,23.975,23.865,,,0.675,21.96416667,242.184417,2.769166667
10/10/2012 3:00:00 AM,4.748333333,16.21083333,20.79833333,14.3625,,,0.6475,20.3225,298.8018812,1.4325
10/10/2012 4:00:00 AM,8.534166667,23.52583333,31.93,6.885,,,0.659166667,19.95333333,208.9370278,1.659166667
10/10/2012 5:00:00 AM,17.46833333,28.23666667,45.565,2.315833333,,,0.609166667,19.88916667,318.615406,1.6775